User: anonymous   Login
Location: Unspecified
(0.0000°N, 0.0000°E)
Time: 10:47:42
(UTC+02:00)
Language:

Resurs 1-3 - Orbit

View from above orbital plane
View from above orbital plane
View from above satellite
View from above satellite

Ground track
Ground track

The orbit data is extracted from the following two-line orbital elements,

1 23342U 94074A   15142.10934615  .00000496  00000-0  74574-4 0  9990
2 23342 098.1521 162.0110 0001758 072.8660 323.1140 14.78923783105870
Epoch (UTC): 22 May 2015 02:37:27
Eccentricity: 0.0001758
inclination: 98.1521°
perigee height: 631 km
apogee height: 634 km
right ascension of ascending node: 162.0110°
argument of perigee: 72.8660°
revolutions per day: 14.78923783
mean anomaly at epoch: 323.1140°
orbit number at epoch: 10587

The dashed part of the orbit path shows where the satellite is in the earth's shadow,  

DLR